Flag for Norway Weather past 2 weeks in Larvik, Norway

Now
45 °F

Clear.


Feels Like: 43 °F
Forecast: 47 / 60 °F
Wind: 3 mph from North

Location: Torp

Current Time: Oct 1, 2014 at 9:08:54 AM

Latest Report: Oct 1, 2014 at 8:20 AM


Visibility: 10 mi

Pressure: 30.33 "Hg

Humidity: 100%

Dew point: 45 °F

Location of LarvikLocation

Historic Weather in Larvik — Graph

°F

Larvik temperature yesterday

Maximum temperature yesterday: 57 °F (at 3:20 PM)
Minimum temperature yesterday: 41 °F (at 5:20 AM)
Average temperature yesterday: 49 °F

Past Weeks' High & Low Weather Summary

 TemperatureHumidityPressure
High64 °F (Sep 19, 2:20 PM)100% (Sep 16, 7:20 AM)30.39 "Hg (Sep 16, 7:20 AM)
Low37 °F (Sep 23, 6:20 AM)36% (Sep 26, 5:20 PM)29.53 "Hg (Sep 25, 2:20 AM)
Average52 °F77%29.99 "Hg
* Reported Sep 16 7:20 AM — Oct 1 7:50 AM, Larvik, Weather by CustomWeather, © 2014

Note: Actual official high and low records may vary slightly from our data, if they occured in-between our weather recording intervals... More about our weather records

Advertising

Larvik weather history for previous 24 hours

 ConditionsComfort  
Time TempWeatherWind HumidityBarometerVisibility
7:50 AM
Oct 1
43 °FClear.3 mph100%30.33 "Hg10 mi
7:20 AM43 °FClear.5 mph100%30.33 "Hg10 mi
6:50 AM41 °FClear.3 mph100%30.33 "Hg10 mi
6:20 AM41 °FClear.3 mph100%30.33 "Hg10 mi
5:50 AM39 °FClear.3 mph100%30.33 "Hg10 mi
5:20 AM41 °FFog.3 mph93%30.33 "Hg2 mi
4:50 AM41 °FFog.3 mph100%30.33 "Hg3 mi
4:20 AM41 °FFog.5 mph100%30.33 "Hg2 mi
3:50 AM39 °FFog.3 mph100%30.33 "Hg2 mi
3:20 AM41 °FFog.5 mph100%30.33 "Hg1 mi
2:50 AM41 °FFog.3 mph100%30.33 "Hg2 mi
2:20 AM41 °FQuite cool.3 mph100%30.36 "Hg3 mi
1:50 AM41 °FFog.3 mph100%30.36 "Hg3 mi
1:20 AM41 °FFog.3 mph100%30.33 "Hg2 mi
12:50 AM46 °FFog.1 mph93%30.36 "Hg2 mi
12:20 AM45 °FQuite cool.1 mph93%30.36 "Hg5 mi
11:50 PM
Sep 30
46 °FClear.1 mph87%30.33 "Hg10 mi
10:50 PM46 °FClear.2 mph82%30.33 "Hg10 mi
9:50 PM48 °FClear.2 mph76%30.33 "Hg10 mi
9:20 PM48 °FClear.1 mph82%30.33 "Hg10 mi
8:50 PM48 °FClear.2 mph82%30.33 "Hg10 mi
8:20 PM50 °FClear.2 mph76%30.33 "Hg10 mi
7:50 PM50 °FSunny.No wind82%30.33 "Hg10 mi
7:20 PM52 °FSunny.No wind72%30.33 "Hg10 mi
6:50 PM52 °FSunny.2 mph77%30.33 "Hg10 mi
6:20 PM55 °FSunny.2 mph63%30.33 "Hg10 mi
5:50 PM55 °FSunny.2 mph63%30.33 "Hg10 mi
5:20 PM57 °FPassing clouds.3 mph59%30.33 "HgN/A
4:50 PM57 °FSunny.1 mph59%30.33 "Hg10 mi
4:20 PM57 °FSunny.2 mph63%30.33 "Hg10 mi
3:50 PM57 °FSunny.3 mph63%30.33 "Hg10 mi
3:20 PM57 °FPassing clouds.3 mph59%30.33 "HgN/A
2:50 PM55 °FSunny.2 mph67%30.33 "Hg10 mi
2:20 PM55 °FSunny.1 mph67%30.33 "Hg10 mi
1:50 PM55 °FPassing clouds.2 mph67%30.33 "HgN/A
1:20 PM55 °FPassing clouds.3 mph67%30.33 "HgN/A
12:50 PM55 °FPassing clouds.2 mph67%30.33 "HgN/A
12:20 PM54 °FPassing clouds.3 mph72%30.33 "HgN/A
11:50 AM54 °FScattered clouds.2 mph72%30.33 "HgN/A
11:20 AM52 °FScattered clouds.2 mph72%30.33 "HgN/A
10:50 AM52 °FScattered clouds.5 mph72%30.30 "HgN/A
10:20 AM50 °FScattered clouds.7 mph76%30.30 "HgN/A
9:50 AM48 °FScattered clouds.6 mph82%30.30 "HgN/A
9:20 AM46 °FBroken clouds.6 mph87%30.30 "HgN/A
Weather by CustomWeather, © 2014

See weather overviewHow to use our weather pages